User: anonymous   Login
Location: Cypress Hills Dark-Sky Preserve - CHICO
(49.6176°N, 110.2634°W)
Time: 17:34:17
(UTC-07:00)
Language:

SPOT 5 - Orbit

View from above orbital plane
View from above orbital plane
View from above satellite
View from above satellite

Ground track
Ground track

The orbit data is extracted from the following two-line orbital elements,

1 27421U 02021A   15059.45854436  .00000045  00000-0  40641-4 0  9998
2 27421 098.5266 118.9823 0001252 097.0295 320.3078 14.20111214664699
Epoch (UTC): 28 February 2015 11:00:18
Eccentricity: 0.0001252
inclination: 98.5266°
perigee height: 824 km
apogee height: 826 km
right ascension of ascending node: 118.9823°
argument of perigee: 97.0295°
revolutions per day: 14.20111214
mean anomaly at epoch: 320.3078°
orbit number at epoch: 66469

The dashed part of the orbit path shows where the satellite is in the earth's shadow,  

DLR